Year,Month,Day,Hour,Minute,Value (Times are PST for windspeed in km/hr)
2009,06,27,00,00,1.10
2009,06,27,00,01,0.90
2009,06,27,00,02,1.50
2009,06,27,00,03,1.90
2009,06,27,00,04,1.80
2009,06,27,00,05,2.20
2009,06,27,00,06,2.50
2009,06,27,00,07,1.60
2009,06,27,00,08,1.20
2009,06,27,00,09,1.10
2009,06,27,00,10,1.10
2009,06,27,00,11,0.00
2009,06,27,00,12,0.20
2009,06,27,00,13,0.00
2009,06,27,00,14,0.00
2009,06,27,00,15,0.00
2009,06,27,00,16,0.00
2009,06,27,00,17,0.00
2009,06,27,00,18,0.50
2009,06,27,00,19,0.00
2009,06,27,00,20,0.30
2009,06,27,00,21,0.10
2009,06,27,00,22,0.00
2009,06,27,00,23,0.00
2009,06,27,00,24,0.00
2009,06,27,00,25,0.00
2009,06,27,00,26,0.10
2009,06,27,00,27,0.10
2009,06,27,00,28,1.10
2009,06,27,00,29,0.20
2009,06,27,00,30,1.10
2009,06,27,00,31,2.20
2009,06,27,00,32,1.10
2009,06,27,00,33,1.90
2009,06,27,00,34,2.50
2009,06,27,00,35,3.40
2009,06,27,00,36,2.10
2009,06,27,00,37,3.00
2009,06,27,00,38,3.80
2009,06,27,00,39,2.30
2009,06,27,00,40,3.40
2009,06,27,00,41,3.20
2009,06,27,00,42,2.50
2009,06,27,00,43,3.00
2009,06,27,00,44,2.80
2009,06,27,00,45,2.60
2009,06,27,00,46,1.10
2009,06,27,00,47,0.00
2009,06,27,00,48,0.30
2009,06,27,00,49,0.50
2009,06,27,00,50,1.10
2009,06,27,00,51,0.60
2009,06,27,00,52,0.00
2009,06,27,00,53,0.00
2009,06,27,00,54,0.00
2009,06,27,00,55,0.00
2009,06,27,00,56,0.20
2009,06,27,00,57,0.10
2009,06,27,00,58,0.40
2009,06,27,00,59,2.30
2009,06,27,01,00,2.70
2009,06,27,01,01,3.60
2009,06,27,01,02,3.40
2009,06,27,01,03,3.00
2009,06,27,01,04,2.60
2009,06,27,01,05,2.20
2009,06,27,01,06,1.70
2009,06,27,01,07,0.60
2009,06,27,01,08,0.10
2009,06,27,01,09,0.00
2009,06,27,01,10,0.00
2009,06,27,01,11,0.00
2009,06,27,01,12,0.00
2009,06,27,01,13,0.00
2009,06,27,01,14,0.00
2009,06,27,01,15,0.00
2009,06,27,01,16,0.00
2009,06,27,01,17,0.20
2009,06,27,01,18,0.30
2009,06,27,01,19,0.90
2009,06,27,01,20,0.70
2009,06,27,01,21,0.20
2009,06,27,01,22,0.00
2009,06,27,01,23,0.00
2009,06,27,01,24,0.00
2009,06,27,01,25,0.00
2009,06,27,01,26,0.00
2009,06,27,01,27,0.10
2009,06,27,01,28,1.10
2009,06,27,01,29,2.00
2009,06,27,01,30,0.60
2009,06,27,01,31,1.90
2009,06,27,01,32,1.00
2009,06,27,01,33,0.00
2009,06,27,01,34,0.20
2009,06,27,01,35,0.20
2009,06,27,01,36,0.10
2009,06,27,01,37,0.00
2009,06,27,01,38,0.00
2009,06,27,01,39,0.00
2009,06,27,01,40,0.50
2009,06,27,01,41,0.20
2009,06,27,01,42,0.10
2009,06,27,01,43,0.60
2009,06,27,01,44,1.90
2009,06,27,01,45,1.40
2009,06,27,01,46,3.40
2009,06,27,01,47,2.60
2009,06,27,01,48,2.10
2009,06,27,01,49,2.30
2009,06,27,01,50,0.80
2009,06,27,01,51,1.60
2009,06,27,01,52,0.90
2009,06,27,01,53,1.00
2009,06,27,01,54,2.40
2009,06,27,01,55,3.20
2009,06,27,01,56,3.00
2009,06,27,01,57,4.40
2009,06,27,01,58,2.60
2009,06,27,01,59,2.00
2009,06,27,02,00,0.30
2009,06,27,02,01,0.00
2009,06,27,02,02,0.10
2009,06,27,02,03,0.20
2009,06,27,02,04,0.60
2009,06,27,02,05,1.80
2009,06,27,02,06,1.40
2009,06,27,02,07,0.60
2009,06,27,02,08,2.40
2009,06,27,02,09,2.80
2009,06,27,02,10,3.40
2009,06,27,02,11,2.70
2009,06,27,02,12,2.90
2009,06,27,02,13,1.90
2009,06,27,02,14,2.80
2009,06,27,02,15,2.50
2009,06,27,02,16,2.10
2009,06,27,02,17,0.60
2009,06,27,02,18,1.80
2009,06,27,02,19,1.70
2009,06,27,02,20,1.10
2009,06,27,02,21,1.10
2009,06,27,02,22,2.00
2009,06,27,02,23,1.80
2009,06,27,02,24,1.70
2009,06,27,02,25,2.50
2009,06,27,02,26,2.30
2009,06,27,02,27,2.30
2009,06,27,02,28,1.00
2009,06,27,02,29,0.40
2009,06,27,02,30,0.20
2009,06,27,02,31,1.30
2009,06,27,02,32,1.50
2009,06,27,02,33,2.20
2009,06,27,02,34,2.30
2009,06,27,02,35,1.50
2009,06,27,02,36,1.10
2009,06,27,02,37,2.50
2009,06,27,02,38,2.90
2009,06,27,02,39,3.60
2009,06,27,02,40,4.30
2009,06,27,02,41,4.00
2009,06,27,02,42,3.50
2009,06,27,02,43,3.10
2009,06,27,02,44,2.80
2009,06,27,02,45,2.30
2009,06,27,02,46,1.30
2009,06,27,02,47,2.70
2009,06,27,02,48,2.90
2009,06,27,02,49,3.10
2009,06,27,02,50,3.30
2009,06,27,02,51,4.60
2009,06,27,02,52,4.30
2009,06,27,02,53,4.40
2009,06,27,02,54,5.10
2009,06,27,02,55,5.50
2009,06,27,02,56,5.60
2009,06,27,02,57,5.00
2009,06,27,02,58,4.70
2009,06,27,02,59,4.00
2009,06,27,03,00,2.80
2009,06,27,03,01,2.50
2009,06,27,03,02,2.30
2009,06,27,03,03,2.00
2009,06,27,03,04,2.50
2009,06,27,03,05,1.30
2009,06,27,03,06,1.90
2009,06,27,03,07,1.60
2009,06,27,03,08,1.30
2009,06,27,03,09,2.30
2009,06,27,03,10,1.90
2009,06,27,03,11,0.90
2009,06,27,03,12,0.60
2009,06,27,03,13,0.40
2009,06,27,03,14,0.60
2009,06,27,03,15,0.00
2009,06,27,03,16,1.90
2009,06,27,03,17,0.60
2009,06,27,03,18,0.00
2009,06,27,03,19,0.10
2009,06,27,03,20,0.00
2009,06,27,03,21,0.00
2009,06,27,03,22,0.00
2009,06,27,03,23,0.00
2009,06,27,03,24,0.20
2009,06,27,03,25,0.00
2009,06,27,03,26,0.00
2009,06,27,03,27,0.00
2009,06,27,03,28,0.00
2009,06,27,03,29,0.00
2009,06,27,03,30,0.10
2009,06,27,03,31,0.00
2009,06,27,03,32,0.00
2009,06,27,03,33,0.30
2009,06,27,03,34,2.30
2009,06,27,03,35,0.90
2009,06,27,03,36,0.60
2009,06,27,03,37,1.00
2009,06,27,03,38,1.40
2009,06,27,03,39,1.10
2009,06,27,03,40,0.90
2009,06,27,03,41,0.50
2009,06,27,03,42,0.20
2009,06,27,03,43,0.10
2009,06,27,03,44,0.00
2009,06,27,03,45,0.00
2009,06,27,03,46,0.00
2009,06,27,03,47,0.40
2009,06,27,03,48,0.60
2009,06,27,03,49,0.00
2009,06,27,03,50,0.10
2009,06,27,03,51,0.30
2009,06,27,03,52,1.30
2009,06,27,03,53,0.00
2009,06,27,03,54,1.20
2009,06,27,03,55,2.60
2009,06,27,03,56,0.40
2009,06,27,03,57,0.20
2009,06,27,03,58,0.10
2009,06,27,03,59,0.10
2009,06,27,04,00,0.10
2009,06,27,04,01,0.00
2009,06,27,04,02,0.00
2009,06,27,04,03,0.00
2009,06,27,04,04,0.10
2009,06,27,04,05,0.00
2009,06,27,04,06,0.90
2009,06,27,04,07,0.00
2009,06,27,04,08,0.00
2009,06,27,04,09,0.00
2009,06,27,04,10,0.00
2009,06,27,04,11,0.00
2009,06,27,04,12,1.50
2009,06,27,04,13,1.00
2009,06,27,04,14,1.30
2009,06,27,04,15,0.10
2009,06,27,04,16,1.20
2009,06,27,04,17,0.20
2009,06,27,04,18,0.00
2009,06,27,04,19,0.00
2009,06,27,04,20,0.10
2009,06,27,04,21,0.20
2009,06,27,04,22,0.10
2009,06,27,04,23,0.20
2009,06,27,04,24,0.40
2009,06,27,04,25,0.10
2009,06,27,04,26,0.20
2009,06,27,04,27,0.20
2009,06,27,04,28,0.00
2009,06,27,04,29,0.00
2009,06,27,04,30,0.20
2009,06,27,04,31,0.50
2009,06,27,04,32,1.70
2009,06,27,04,33,1.10
2009,06,27,04,34,0.60
2009,06,27,04,35,1.40
2009,06,27,04,36,0.00
2009,06,27,04,37,0.00
2009,06,27,04,38,0.00
2009,06,27,04,39,0.00
2009,06,27,04,40,0.00
2009,06,27,04,41,0.00
2009,06,27,04,42,0.00
2009,06,27,04,43,0.00
2009,06,27,04,44,0.00
2009,06,27,04,45,0.70
2009,06,27,04,46,1.00
2009,06,27,04,47,0.00
2009,06,27,04,48,0.00
2009,06,27,04,49,0.00
2009,06,27,04,50,0.00
2009,06,27,04,51,0.00
2009,06,27,04,52,0.00
2009,06,27,04,53,0.00
2009,06,27,04,54,0.00
2009,06,27,04,55,0.00
2009,06,27,04,56,0.00
2009,06,27,04,57,0.10
2009,06,27,04,58,0.10
2009,06,27,04,59,0.00
2009,06,27,05,00,0.00
2009,06,27,05,01,0.00
2009,06,27,05,02,0.00
2009,06,27,05,03,0.30
2009,06,27,05,04,1.00
2009,06,27,05,05,0.20
2009,06,27,05,06,0.30
2009,06,27,05,07,0.00
2009,06,27,05,08,0.00
2009,06,27,05,09,0.00
2009,06,27,05,10,0.20
2009,06,27,05,11,0.30
2009,06,27,05,12,0.20
2009,06,27,05,13,0.00
2009,06,27,05,14,0.00
2009,06,27,05,15,0.00
2009,06,27,05,16,0.00
2009,06,27,05,17,0.00
2009,06,27,05,18,0.00
2009,06,27,05,19,0.00
2009,06,27,05,20,0.00
2009,06,27,05,21,0.70
2009,06,27,05,22,1.20
2009,06,27,05,23,3.40
2009,06,27,05,24,4.10
2009,06,27,05,25,2.70
2009,06,27,05,26,0.80
2009,06,27,05,27,0.00
2009,06,27,05,28,0.90
2009,06,27,05,29,0.20
2009,06,27,05,30,0.10
2009,06,27,05,31,0.90
2009,06,27,05,32,0.20
2009,06,27,05,33,0.30
2009,06,27,05,34,0.10
2009,06,27,05,35,0.00
2009,06,27,05,36,0.20
2009,06,27,05,37,0.00
2009,06,27,05,38,0.00
2009,06,27,05,39,0.00
2009,06,27,05,40,0.00
2009,06,27,05,41,0.00
2009,06,27,05,42,0.00
2009,06,27,05,43,0.10
2009,06,27,05,44,0.20
2009,06,27,05,45,0.20
2009,06,27,05,46,0.20
2009,06,27,05,47,0.00
2009,06,27,05,48,0.00
2009,06,27,05,49,0.00
2009,06,27,05,50,0.00
2009,06,27,05,51,0.10
2009,06,27,05,52,0.00
2009,06,27,05,53,0.00
2009,06,27,05,54,0.00
2009,06,27,05,55,0.00
2009,06,27,05,56,0.00
2009,06,27,05,57,0.00
2009,06,27,05,58,0.00
2009,06,27,05,59,0.00
2009,06,27,06,00,0.00
2009,06,27,06,01,0.00
2009,06,27,06,02,0.00
2009,06,27,06,03,0.00
2009,06,27,06,04,0.00
2009,06,27,06,05,0.00
2009,06,27,06,06,0.00
2009,06,27,06,07,0.00
2009,06,27,06,08,0.00
2009,06,27,06,09,0.00
2009,06,27,06,10,0.00
2009,06,27,06,11,0.00
2009,06,27,06,12,0.00
2009,06,27,06,13,0.00
2009,06,27,06,14,0.00
2009,06,27,06,15,0.00
2009,06,27,06,16,0.00
2009,06,27,06,17,0.00
2009,06,27,06,18,0.00
2009,06,27,06,19,0.20
2009,06,27,06,20,0.00
2009,06,27,06,21,0.00
2009,06,27,06,22,0.00
2009,06,27,06,23,0.00
2009,06,27,06,24,0.00
2009,06,27,06,25,0.00
2009,06,27,06,26,0.00
2009,06,27,06,27,0.00
2009,06,27,06,28,0.00
2009,06,27,06,29,0.00
2009,06,27,06,30,0.00
2009,06,27,06,31,0.00
2009,06,27,06,32,0.00
2009,06,27,06,33,0.00
2009,06,27,06,34,0.00
2009,06,27,06,35,0.20
2009,06,27,06,36,0.00
2009,06,27,06,37,0.00
2009,06,27,06,38,0.20
2009,06,27,06,39,0.00
2009,06,27,06,40,0.20
2009,06,27,06,41,2.40
2009,06,27,06,42,0.80
2009,06,27,06,43,0.30
2009,06,27,06,44,1.80
2009,06,27,06,45,0.80
2009,06,27,06,46,1.80
2009,06,27,06,47,1.90
2009,06,27,06,48,1.90
2009,06,27,06,49,3.10
2009,06,27,06,50,1.50
2009,06,27,06,51,1.40
2009,06,27,06,52,1.40
2009,06,27,06,53,3.90
2009,06,27,06,54,3.50
2009,06,27,06,55,5.30
2009,06,27,06,56,0.30
2009,06,27,06,57,1.70
2009,06,27,06,58,3.50
2009,06,27,06,59,1.90
2009,06,27,07,00,0.00
2009,06,27,07,01,0.00
2009,06,27,07,02,0.10
2009,06,27,07,03,0.20
2009,06,27,07,04,0.00
2009,06,27,07,05,0.00
2009,06,27,07,06,0.00
2009,06,27,07,07,0.00
2009,06,27,07,08,0.00
2009,06,27,07,09,0.00
2009,06,27,07,10,0.20
2009,06,27,07,11,0.00
2009,06,27,07,12,0.00
2009,06,27,07,13,0.00
2009,06,27,07,14,0.20
2009,06,27,07,15,2.20
2009,06,27,07,16,2.30
2009,06,27,07,17,4.30
2009,06,27,07,18,4.20
2009,06,27,07,19,3.50
2009,06,27,07,20,1.10
2009,06,27,07,21,0.40
2009,06,27,07,22,2.00
2009,06,27,07,23,6.20
2009,06,27,07,24,2.00
2009,06,27,07,25,2.70
2009,06,27,07,26,2.30
2009,06,27,07,27,0.00
2009,06,27,07,28,0.00
2009,06,27,07,29,0.00
2009,06,27,07,30,1.40
2009,06,27,07,31,3.40
2009,06,27,07,32,4.90
2009,06,27,07,33,3.20
2009,06,27,07,34,3.90
2009,06,27,07,35,1.80
2009,06,27,07,36,2.50
2009,06,27,07,37,3.50
2009,06,27,07,38,3.20
2009,06,27,07,39,3.40
2009,06,27,07,40,2.90
2009,06,27,07,41,3.80
2009,06,27,07,42,1.80
2009,06,27,07,43,0.70
2009,06,27,07,44,1.30
2009,06,27,07,45,1.10
2009,06,27,07,46,2.00
2009,06,27,07,47,4.10
2009,06,27,07,48,2.10
2009,06,27,07,49,3.60
2009,06,27,07,50,0.30
2009,06,27,07,51,1.80
2009,06,27,07,52,1.50
2009,06,27,07,53,1.80
2009,06,27,07,54,0.00
2009,06,27,07,55,2.60
2009,06,27,07,56,1.60
2009,06,27,07,57,3.40
2009,06,27,07,58,6.50
2009,06,27,07,59,4.50
2009,06,27,08,00,4.20
2009,06,27,08,01,0.70
2009,06,27,08,02,2.90
2009,06,27,08,03,5.20
2009,06,27,08,04,3.80
2009,06,27,08,05,2.30
2009,06,27,08,06,1.70
2009,06,27,08,07,3.50
2009,06,27,08,08,3.00
2009,06,27,08,09,1.70
2009,06,27,08,10,3.80
2009,06,27,08,11,0.10
2009,06,27,08,12,1.30
2009,06,27,08,13,1.70
2009,06,27,08,14,0.60
2009,06,27,08,15,0.30
2009,06,27,08,16,0.20
2009,06,27,08,17,0.00
2009,06,27,08,18,0.00
2009,06,27,08,19,1.40
2009,06,27,08,20,2.20
2009,06,27,08,21,2.70
2009,06,27,08,22,0.30
2009,06,27,08,23,2.70
2009,06,27,08,24,5.20
2009,06,27,08,25,5.20
2009,06,27,08,26,2.40
2009,06,27,08,27,2.80
2009,06,27,08,28,4.60
2009,06,27,08,29,2.80
2009,06,27,08,30,2.30
2009,06,27,08,31,0.50
2009,06,27,08,32,1.20
2009,06,27,08,33,1.00
2009,06,27,08,34,2.50
2009,06,27,08,35,3.10
2009,06,27,08,36,5.70
2009,06,27,08,37,1.90
2009,06,27,08,38,2.90
2009,06,27,08,39,3.80
2009,06,27,08,40,3.00
2009,06,27,08,41,5.70
2009,06,27,08,42,4.50
2009,06,27,08,43,0.70
2009,06,27,08,44,1.10
2009,06,27,08,45,3.60
2009,06,27,08,46,4.20
2009,06,27,08,47,6.80
2009,06,27,08,48,6.80
2009,06,27,08,49,6.40
2009,06,27,08,50,4.60
2009,06,27,08,51,2.00
2009,06,27,08,52,5.40
2009,06,27,08,53,4.90
2009,06,27,08,54,3.20
2009,06,27,08,55,4.20
2009,06,27,08,56,6.60
2009,06,27,08,57,3.50
2009,06,27,08,58,0.30
2009,06,27,08,59,2.50
2009,06,27,09,00,4.10
2009,06,27,09,01,4.40
2009,06,27,09,02,1.10
2009,06,27,09,03,3.90
2009,06,27,09,04,2.00
2009,06,27,09,05,6.70
2009,06,27,09,06,5.00
2009,06,27,09,07,6.20
2009,06,27,09,08,1.10
2009,06,27,09,09,3.00
2009,06,27,09,10,2.70
2009,06,27,09,11,3.70
2009,06,27,09,12,3.10
2009,06,27,09,13,3.50
2009,06,27,09,14,2.50
2009,06,27,09,15,5.50
2009,06,27,09,16,2.60
2009,06,27,09,17,0.20
2009,06,27,09,18,0.30
2009,06,27,09,19,2.30
2009,06,27,09,20,3.00
2009,06,27,09,21,0.50
2009,06,27,09,22,1.50
2009,06,27,09,23,2.70
2009,06,27,09,24,3.00
2009,06,27,09,25,0.60
2009,06,27,09,26,1.40
2009,06,27,09,27,4.20
2009,06,27,09,28,3.00
2009,06,27,09,29,1.40
2009,06,27,09,30,3.10
2009,06,27,09,31,1.90
2009,06,27,09,32,2.80
2009,06,27,09,33,3.40
2009,06,27,09,34,2.20
2009,06,27,09,35,2.70
2009,06,27,09,36,4.70
2009,06,27,09,37,4.40
2009,06,27,09,38,3.50
2009,06,27,09,39,3.10
2009,06,27,09,40,4.70
2009,06,27,09,41,6.10
2009,06,27,09,42,3.30
2009,06,27,09,43,0.70
2009,06,27,09,44,3.00
2009,06,27,09,45,2.10
2009,06,27,09,46,3.20
2009,06,27,09,47,3.80
2009,06,27,09,48,4.10
2009,06,27,09,49,2.70
2009,06,27,09,50,5.80
2009,06,27,09,51,4.70
2009,06,27,09,52,3.80
2009,06,27,09,53,3.30
2009,06,27,09,54,1.80
2009,06,27,09,55,3.00
2009,06,27,09,56,2.50
2009,06,27,09,57,2.90
2009,06,27,09,58,4.30
2009,06,27,09,59,1.90
2009,06,27,10,00,1.50
2009,06,27,10,01,2.50
2009,06,27,10,02,2.30
2009,06,27,10,03,3.30
2009,06,27,10,04,2.60
2009,06,27,10,05,3.00
2009,06,27,10,06,2.00
2009,06,27,10,07,3.40
2009,06,27,10,08,5.90
2009,06,27,10,09,4.40
2009,06,27,10,10,3.10
2009,06,27,10,11,4.20
2009,06,27,10,12,2.60
2009,06,27,10,13,3.30
2009,06,27,10,14,2.70
2009,06,27,10,15,3.90
2009,06,27,10,16,4.00
2009,06,27,10,17,2.00
2009,06,27,10,18,2.30
2009,06,27,10,19,0.80
2009,06,27,10,20,2.00
2009,06,27,10,21,2.00
2009,06,27,10,22,6.30
2009,06,27,10,23,4.30
2009,06,27,10,24,4.40
2009,06,27,10,25,2.50
2009,06,27,10,26,1.80
2009,06,27,10,27,1.20
2009,06,27,10,28,5.30
2009,06,27,10,29,1.60
2009,06,27,10,30,2.10
2009,06,27,10,31,4.00
2009,06,27,10,32,3.40
2009,06,27,10,33,3.80
2009,06,27,10,34,5.60
2009,06,27,10,35,2.50
2009,06,27,10,36,4.30
2009,06,27,10,37,3.20
2009,06,27,10,38,1.50
2009,06,27,10,39,4.60
2009,06,27,10,40,5.90
2009,06,27,10,41,3.10
2009,06,27,10,42,1.80
2009,06,27,10,43,3.10
2009,06,27,10,44,4.00
2009,06,27,10,45,3.00
2009,06,27,10,46,4.00
2009,06,27,10,47,2.60
2009,06,27,10,48,3.50
2009,06,27,10,49,2.10
2009,06,27,10,50,4.40
2009,06,27,10,51,1.20
2009,06,27,10,52,1.90
2009,06,27,10,53,2.40
2009,06,27,10,54,0.60
2009,06,27,10,55,1.40
2009,06,27,10,56,2.80
2009,06,27,10,57,1.90
2009,06,27,10,58,1.40
2009,06,27,10,59,4.20
2009,06,27,11,00,4.10
2009,06,27,11,01,0.30
2009,06,27,11,02,1.90
2009,06,27,11,03,3.10
2009,06,27,11,04,1.20
2009,06,27,11,05,5.60
2009,06,27,11,06,3.50
2009,06,27,11,07,4.00
2009,06,27,11,08,2.30
2009,06,27,11,09,1.10
2009,06,27,11,10,2.30
2009,06,27,11,11,3.90
2009,06,27,11,12,3.00
2009,06,27,11,13,1.40
2009,06,27,11,14,1.40
2009,06,27,11,15,3.40
2009,06,27,11,16,10.00
2009,06,27,11,17,9.20
2009,06,27,11,18,3.10
2009,06,27,11,19,2.30
2009,06,27,11,20,1.40
2009,06,27,11,21,2.50
2009,06,27,11,22,5.80
2009,06,27,11,23,5.90
2009,06,27,11,24,4.00
2009,06,27,11,25,2.00
2009,06,27,11,26,0.30
2009,06,27,11,27,3.30
2009,06,27,11,28,6.20
2009,06,27,11,29,4.70
2009,06,27,11,30,8.20
2009,06,27,11,31,1.20
2009,06,27,11,32,1.50
2009,06,27,11,33,2.00
2009,06,27,11,34,2.30
2009,06,27,11,35,5.20
2009,06,27,11,36,4.10
2009,06,27,11,37,2.70
2009,06,27,11,38,4.70
2009,06,27,11,39,3.10
2009,06,27,11,40,5.90
2009,06,27,11,41,2.50
2009,06,27,11,42,3.00
2009,06,27,11,43,2.70
2009,06,27,11,44,8.80
2009,06,27,11,45,3.90
2009,06,27,11,46,3.80
2009,06,27,11,47,5.80
2009,06,27,11,48,2.90
2009,06,27,11,49,3.00
2009,06,27,11,50,2.20
2009,06,27,11,51,4.10
2009,06,27,11,52,4.80
2009,06,27,11,53,5.10
2009,06,27,11,54,6.20
2009,06,27,11,55,4.60
2009,06,27,11,56,3.80
2009,06,27,11,57,3.30
2009,06,27,11,58,4.70
2009,06,27,11,59,3.50
2009,06,27,12,00,3.50
2009,06,27,12,01,6.10
2009,06,27,12,02,4.00
2009,06,27,12,03,1.30
2009,06,27,12,04,3.60
2009,06,27,12,05,3.90
2009,06,27,12,06,5.70
2009,06,27,12,07,2.70
2009,06,27,12,08,2.10
2009,06,27,12,09,3.90
2009,06,27,12,10,3.00
2009,06,27,12,11,5.20
2009,06,27,12,12,4.40
2009,06,27,12,13,4.70
2009,06,27,12,14,0.20
2009,06,27,12,15,2.70
2009,06,27,12,16,5.10
2009,06,27,12,17,3.10
2009,06,27,12,18,1.60
2009,06,27,12,19,2.90
2009,06,27,12,20,3.50
2009,06,27,12,21,3.50
2009,06,27,12,22,5.70
2009,06,27,12,23,5.70
2009,06,27,12,24,8.00
2009,06,27,12,25,4.90
2009,06,27,12,26,4.60
2009,06,27,12,27,2.20
2009,06,27,12,28,3.50
2009,06,27,12,29,2.10
2009,06,27,12,30,1.00
2009,06,27,12,31,3.30
2009,06,27,12,32,3.90
2009,06,27,12,33,5.10
2009,06,27,12,34,5.70
2009,06,27,12,35,2.70
2009,06,27,12,36,2.80
2009,06,27,12,37,3.10
2009,06,27,12,38,2.30
2009,06,27,12,39,3.90
2009,06,27,12,40,1.70
2009,06,27,12,41,3.10
2009,06,27,12,42,0.20
2009,06,27,12,43,1.10
2009,06,27,12,44,4.60
2009,06,27,12,45,4.80
2009,06,27,12,46,2.60
2009,06,27,12,47,1.10
2009,06,27,12,48,1.20
2009,06,27,12,49,3.10
2009,06,27,12,50,2.20
2009,06,27,12,51,1.60
2009,06,27,12,52,0.80
2009,06,27,12,53,0.60
2009,06,27,12,54,3.10
2009,06,27,12,55,3.70
2009,06,27,12,56,4.60
2009,06,27,12,57,1.00
2009,06,27,12,58,5.80
2009,06,27,12,59,8.70
2009,06,27,13,00,4.80
2009,06,27,13,01,8.00
2009,06,27,13,02,4.80
2009,06,27,13,03,6.20
2009,06,27,13,04,11.50
2009,06,27,13,05,6.10
2009,06,27,13,06,9.30
2009,06,27,13,07,2.60
2009,06,27,13,08,3.10
2009,06,27,13,09,4.20
2009,06,27,13,10,9.10
2009,06,27,13,11,7.30
2009,06,27,13,12,5.20
2009,06,27,13,13,9.60
2009,06,27,13,14,8.70
2009,06,27,13,15,10.80
2009,06,27,13,16,4.70
2009,06,27,13,17,3.60
2009,06,27,13,18,13.10
2009,06,27,13,19,6.40
2009,06,27,13,20,7.30
2009,06,27,13,21,9.10
2009,06,27,13,22,10.80
2009,06,27,13,23,5.50
2009,06,27,13,24,8.10
2009,06,27,13,25,10.70
2009,06,27,13,26,8.10
2009,06,27,13,27,5.80
2009,06,27,13,28,6.40
2009,06,27,13,29,3.10
2009,06,27,13,30,6.20
2009,06,27,13,31,10.30
2009,06,27,13,32,6.20
2009,06,27,13,33,5.00
2009,06,27,13,34,8.50
2009,06,27,13,35,10.70
2009,06,27,13,36,9.70
2009,06,27,13,37,2.30
2009,06,27,13,38,4.20
2009,06,27,13,39,4.40
2009,06,27,13,40,5.30
2009,06,27,13,41,8.50
2009,06,27,13,42,11.60
2009,06,27,13,43,4.90
2009,06,27,13,44,4.70
2009,06,27,13,45,2.70
2009,06,27,13,46,3.50
2009,06,27,13,47,8.50
2009,06,27,13,48,8.30
2009,06,27,13,49,5.50
2009,06,27,13,50,3.90
2009,06,27,13,51,5.10
2009,06,27,13,52,6.40
2009,06,27,13,53,5.10
2009,06,27,13,54,3.20
2009,06,27,13,55,6.00
2009,06,27,13,56,6.00
2009,06,27,13,57,5.70
2009,06,27,13,58,8.90
2009,06,27,13,59,5.80
2009,06,27,14,00,3.20
2009,06,27,14,01,1.60
2009,06,27,14,02,3.80
2009,06,27,14,03,4.30
2009,06,27,14,04,7.00
2009,06,27,14,05,7.80
2009,06,27,14,06,7.20
2009,06,27,14,07,7.90
2009,06,27,14,08,10.10
2009,06,27,14,09,12.20
2009,06,27,14,10,8.90
2009,06,27,14,11,6.20
2009,06,27,14,12,11.10
2009,06,27,14,13,7.20
2009,06,27,14,14,9.90
2009,06,27,14,15,7.30
2009,06,27,14,16,9.50
2009,06,27,14,17,3.20
2009,06,27,14,18,7.60
2009,06,27,14,19,7.50
2009,06,27,14,20,7.60
2009,06,27,14,21,1.40
2009,06,27,14,22,10.10
2009,06,27,14,23,10.20
2009,06,27,14,24,7.80
2009,06,27,14,25,10.30
2009,06,27,14,26,9.10
2009,06,27,14,27,5.00
2009,06,27,14,28,4.60
2009,06,27,14,29,11.70
2009,06,27,14,30,4.70
2009,06,27,14,31,5.00
2009,06,27,14,32,4.20
2009,06,27,14,33,1.10
2009,06,27,14,34,5.50
2009,06,27,14,35,4.20
2009,06,27,14,36,3.10
2009,06,27,14,37,8.10
2009,06,27,14,38,7.50
2009,06,27,14,39,2.80
2009,06,27,14,40,8.40
2009,06,27,14,41,14.00
2009,06,27,14,42,11.70
2009,06,27,14,43,6.70
2009,06,27,14,44,4.60
2009,06,27,14,45,9.20
2009,06,27,14,46,5.60
2009,06,27,14,47,9.80
2009,06,27,14,48,8.80
2009,06,27,14,49,6.90
2009,06,27,14,50,5.60
2009,06,27,14,51,4.30
2009,06,27,14,52,5.80
2009,06,27,14,53,8.90
2009,06,27,14,54,9.70
2009,06,27,14,55,9.30
2009,06,27,14,56,14.60
2009,06,27,14,57,10.20
2009,06,27,14,58,6.20
2009,06,27,14,59,10.20
2009,06,27,15,00,11.40
2009,06,27,15,01,5.50
2009,06,27,15,02,8.70
2009,06,27,15,03,11.40
2009,06,27,15,04,7.60
2009,06,27,15,05,10.10
2009,06,27,15,06,9.70
2009,06,27,15,07,9.10
2009,06,27,15,08,12.00
2009,06,27,15,09,11.90
2009,06,27,15,10,9.00
2009,06,27,15,11,12.30
2009,06,27,15,12,12.00
2009,06,27,15,13,10.30
2009,06,27,15,14,13.00
2009,06,27,15,15,11.80
2009,06,27,15,16,9.50
2009,06,27,15,17,7.60
2009,06,27,15,18,5.00
2009,06,27,15,19,7.50
2009,06,27,15,20,8.40
2009,06,27,15,21,9.40
2009,06,27,15,22,11.50
2009,06,27,15,23,4.10
2009,06,27,15,24,9.70
2009,06,27,15,25,5.70
2009,06,27,15,26,4.20
2009,06,27,15,27,6.60
2009,06,27,15,28,5.30
2009,06,27,15,29,5.20
2009,06,27,15,30,2.90
2009,06,27,15,31,5.80
2009,06,27,15,32,10.70
2009,06,27,15,33,7.60
2009,06,27,15,34,5.70
2009,06,27,15,35,6.00
2009,06,27,15,36,7.10
2009,06,27,15,37,7.20
2009,06,27,15,38,9.10
2009,06,27,15,39,12.10
2009,06,27,15,40,11.40
2009,06,27,15,41,6.10
2009,06,27,15,42,8.10
2009,06,27,15,43,12.90
2009,06,27,15,44,4.40
2009,06,27,15,45,8.10
2009,06,27,15,46,6.20
2009,06,27,15,47,9.30
2009,06,27,15,48,4.70
2009,06,27,15,49,7.60
2009,06,27,15,50,7.00
2009,06,27,15,51,1.20
2009,06,27,15,52,6.70
2009,06,27,15,53,9.00
2009,06,27,15,54,7.60
2009,06,27,15,55,7.50
2009,06,27,15,56,2.20
2009,06,27,15,57,8.90
2009,06,27,15,58,2.70
2009,06,27,15,59,9.50
2009,06,27,16,00,3.40
2009,06,27,16,01,1.60
2009,06,27,16,02,3.90
2009,06,27,16,03,8.00
2009,06,27,16,04,5.10
2009,06,27,16,05,4.70
2009,06,27,16,06,5.50
2009,06,27,16,07,13.50
2009,06,27,16,08,3.70
2009,06,27,16,09,5.50
2009,06,27,16,10,3.50
2009,06,27,16,11,2.00
2009,06,27,16,12,0.60
2009,06,27,16,13,1.20
2009,06,27,16,14,6.60
2009,06,27,16,15,4.40
2009,06,27,16,16,6.40
2009,06,27,16,17,4.80
2009,06,27,16,18,4.40
2009,06,27,16,19,5.10
2009,06,27,16,20,9.10
2009,06,27,16,21,11.40
2009,06,27,16,22,11.30
2009,06,27,16,23,9.30
2009,06,27,16,24,7.30
2009,06,27,16,25,9.20
2009,06,27,16,26,9.70
2009,06,27,16,27,9.70
2009,06,27,16,28,9.40
2009,06,27,16,29,6.90
2009,06,27,16,30,3.40
2009,06,27,16,31,8.50
2009,06,27,16,32,3.10
2009,06,27,16,33,2.30
2009,06,27,16,34,6.00
2009,06,27,16,35,5.80
2009,06,27,16,36,7.70
2009,06,27,16,37,3.50
2009,06,27,16,38,1.90
2009,06,27,16,39,5.60
2009,06,27,16,40,1.00
2009,06,27,16,41,4.00
2009,06,27,16,42,13.80
2009,06,27,16,43,7.30
2009,06,27,16,44,10.30
2009,06,27,16,45,7.70
2009,06,27,16,46,9.00
2009,06,27,16,47,3.40
2009,06,27,16,48,4.10
2009,06,27,16,49,10.80
2009,06,27,16,50,10.40
2009,06,27,16,51,3.20
2009,06,27,16,52,11.10
2009,06,27,16,53,8.40
2009,06,27,16,54,2.00
2009,06,27,16,55,5.40
2009,06,27,16,56,3.60
2009,06,27,16,57,8.40
2009,06,27,16,58,12.20
2009,06,27,16,59,10.00
2009,06,27,17,00,10.80
2009,06,27,17,01,7.60
2009,06,27,17,02,3.60
2009,06,27,17,03,9.40
2009,06,27,17,04,11.60
2009,06,27,17,05,8.50
2009,06,27,17,06,12.50
2009,06,27,17,07,8.60
2009,06,27,17,08,6.70
2009,06,27,17,09,9.10
2009,06,27,17,10,11.70
2009,06,27,17,11,6.30
2009,06,27,17,12,4.00
2009,06,27,17,13,2.10
2009,06,27,17,14,6.10
2009,06,27,17,15,5.60
2009,06,27,17,16,1.60
2009,06,27,17,17,7.40
2009,06,27,17,18,5.30
2009,06,27,17,19,5.20
2009,06,27,17,20,1.90
2009,06,27,17,21,7.80
2009,06,27,17,22,6.90
2009,06,27,17,23,3.60
2009,06,27,17,24,3.90
2009,06,27,17,25,8.90
2009,06,27,17,26,3.90
2009,06,27,17,27,6.80
2009,06,27,17,28,8.00
2009,06,27,17,29,10.50
2009,06,27,17,30,3.70
2009,06,27,17,31,3.10
2009,06,27,17,32,5.20
2009,06,27,17,33,7.20
2009,06,27,17,34,8.20
2009,06,27,17,35,5.20
2009,06,27,17,36,6.50
2009,06,27,17,37,9.00
2009,06,27,17,38,11.70
2009,06,27,17,39,0.50
2009,06,27,17,40,6.40
2009,06,27,17,41,4.80
2009,06,27,17,42,4.90
2009,06,27,17,43,7.00
2009,06,27,17,44,6.40
2009,06,27,17,45,8.00
2009,06,27,17,46,6.00
2009,06,27,17,47,5.20
2009,06,27,17,48,3.50
2009,06,27,17,49,7.00
2009,06,27,17,50,3.20
2009,06,27,17,51,2.30
2009,06,27,17,52,2.20
2009,06,27,17,53,3.80
2009,06,27,17,54,5.50
2009,06,27,17,55,2.70
2009,06,27,17,56,2.80
2009,06,27,17,57,2.60
2009,06,27,17,58,2.60
2009,06,27,17,59,0.80
2009,06,27,18,00,5.70
2009,06,27,18,01,3.90
2009,06,27,18,02,5.40
2009,06,27,18,03,11.60
2009,06,27,18,04,5.40